Year,Month,Day,Hour,Minute,Value (Times are PST for insolation in W/m^2)
2019,09,10,00,00,0.00
2019,09,10,00,01,0.00
2019,09,10,00,02,0.00
2019,09,10,00,03,0.00
2019,09,10,00,04,0.00
2019,09,10,00,05,0.00
2019,09,10,00,06,0.00
2019,09,10,00,07,0.00
2019,09,10,00,08,0.00
2019,09,10,00,09,0.00
2019,09,10,00,10,0.00
2019,09,10,00,11,0.00
2019,09,10,00,12,0.00
2019,09,10,00,13,0.00
2019,09,10,00,14,0.00
2019,09,10,00,15,0.00
2019,09,10,00,16,0.00
2019,09,10,00,17,0.00
2019,09,10,00,18,0.00
2019,09,10,00,19,0.00
2019,09,10,00,20,0.00
2019,09,10,00,21,0.00
2019,09,10,00,22,0.00
2019,09,10,00,23,0.00
2019,09,10,00,24,0.00
2019,09,10,00,25,0.00
2019,09,10,00,26,0.00
2019,09,10,00,27,0.00
2019,09,10,00,28,0.00
2019,09,10,00,29,0.00
2019,09,10,00,30,0.00
2019,09,10,00,31,0.00
2019,09,10,00,32,0.00
2019,09,10,00,33,0.00
2019,09,10,00,34,0.00
2019,09,10,00,35,0.00
2019,09,10,00,36,0.00
2019,09,10,00,37,0.00
2019,09,10,00,38,0.00
2019,09,10,00,39,0.00
2019,09,10,00,40,0.00
2019,09,10,00,41,0.00
2019,09,10,00,42,0.00
2019,09,10,00,43,0.00
2019,09,10,00,44,0.00
2019,09,10,00,45,0.00
2019,09,10,00,46,0.00
2019,09,10,00,47,0.00
2019,09,10,00,48,0.00
2019,09,10,00,49,0.00
2019,09,10,00,50,0.00
2019,09,10,00,51,0.00
2019,09,10,00,52,0.00
2019,09,10,00,53,0.00
2019,09,10,00,54,0.00
2019,09,10,00,55,0.00
2019,09,10,00,56,0.00
2019,09,10,00,57,0.00
2019,09,10,00,58,0.00
2019,09,10,00,59,0.00
2019,09,10,01,00,0.00
2019,09,10,01,01,0.00
2019,09,10,01,02,0.00
2019,09,10,01,03,0.00
2019,09,10,01,04,0.00
2019,09,10,01,05,0.00
2019,09,10,01,06,0.00
2019,09,10,01,07,0.00
2019,09,10,01,08,0.00
2019,09,10,01,09,0.00
2019,09,10,01,10,0.00
2019,09,10,01,11,0.00
2019,09,10,01,12,0.00
2019,09,10,01,13,0.00
2019,09,10,01,14,0.00
2019,09,10,01,15,0.00
2019,09,10,01,16,0.00
2019,09,10,01,17,0.00
2019,09,10,01,18,0.00
2019,09,10,01,19,0.00
2019,09,10,01,20,0.00
2019,09,10,01,21,0.00
2019,09,10,01,22,0.00
2019,09,10,01,23,0.00
2019,09,10,01,24,0.00
2019,09,10,01,25,0.00
2019,09,10,01,26,0.00
2019,09,10,01,27,0.00
2019,09,10,01,28,0.00
2019,09,10,01,29,0.00
2019,09,10,01,30,0.00
2019,09,10,01,31,0.00
2019,09,10,01,32,0.00
2019,09,10,01,33,0.00
2019,09,10,01,34,0.00
2019,09,10,01,35,0.00
2019,09,10,01,36,0.00
2019,09,10,01,37,0.00
2019,09,10,01,38,0.00
2019,09,10,01,39,0.00
2019,09,10,01,40,0.00
2019,09,10,01,41,0.00
2019,09,10,01,42,0.00
2019,09,10,01,43,0.00
2019,09,10,01,44,0.00
2019,09,10,01,45,0.00
2019,09,10,01,46,0.00
2019,09,10,01,47,0.00
2019,09,10,01,48,0.00
2019,09,10,01,49,0.00
2019,09,10,01,50,0.00
2019,09,10,01,51,0.00
2019,09,10,01,52,0.00
2019,09,10,01,53,0.00
2019,09,10,01,54,0.00
2019,09,10,01,55,0.00
2019,09,10,01,56,0.00
2019,09,10,01,57,0.00
2019,09,10,01,58,0.00
2019,09,10,01,59,0.00
2019,09,10,02,00,0.00
2019,09,10,02,01,0.00
2019,09,10,02,02,0.00
2019,09,10,02,03,0.00
2019,09,10,02,04,0.00
2019,09,10,02,05,0.00
2019,09,10,02,06,0.00
2019,09,10,02,07,0.00
2019,09,10,02,08,0.00
2019,09,10,02,09,0.00
2019,09,10,02,10,0.00
2019,09,10,02,11,0.00
2019,09,10,02,12,0.00
2019,09,10,02,13,0.00
2019,09,10,02,14,0.00
2019,09,10,02,15,0.00
2019,09,10,02,16,0.00
2019,09,10,02,17,0.00
2019,09,10,02,18,0.00
2019,09,10,02,19,0.00
2019,09,10,02,20,0.00
2019,09,10,02,21,0.00
2019,09,10,02,22,0.00
2019,09,10,02,23,0.00
2019,09,10,02,24,0.00
2019,09,10,02,25,0.00
2019,09,10,02,26,0.00
2019,09,10,02,27,0.00
2019,09,10,02,28,0.00
2019,09,10,02,29,0.00
2019,09,10,02,30,0.00
2019,09,10,02,31,0.00
2019,09,10,02,32,0.00
2019,09,10,02,33,0.00
2019,09,10,02,34,0.00
2019,09,10,02,35,0.00
2019,09,10,02,36,0.00
2019,09,10,02,37,0.00
2019,09,10,02,38,0.00
2019,09,10,02,39,0.00
2019,09,10,02,40,0.00
2019,09,10,02,41,0.00
2019,09,10,02,42,0.00
2019,09,10,02,43,0.00
2019,09,10,02,44,0.00
2019,09,10,02,45,0.00
2019,09,10,02,46,0.00
2019,09,10,02,47,0.00
2019,09,10,02,48,0.00
2019,09,10,02,49,0.00
2019,09,10,02,50,0.00
2019,09,10,02,51,0.00
2019,09,10,02,52,0.00
2019,09,10,02,53,0.00
2019,09,10,02,54,0.00
2019,09,10,02,55,0.00
2019,09,10,02,56,0.00
2019,09,10,02,57,0.00
2019,09,10,02,58,0.00
2019,09,10,02,59,0.00
2019,09,10,03,00,0.00
2019,09,10,03,01,0.00
2019,09,10,03,02,0.00
2019,09,10,03,03,0.00
2019,09,10,03,04,0.00
2019,09,10,03,05,0.00
2019,09,10,03,06,0.00
2019,09,10,03,07,0.00
2019,09,10,03,08,0.00
2019,09,10,03,09,0.00
2019,09,10,03,10,0.00
2019,09,10,03,11,0.00
2019,09,10,03,12,0.00
2019,09,10,03,13,0.00
2019,09,10,03,14,0.00
2019,09,10,03,15,0.00
2019,09,10,03,16,0.00
2019,09,10,03,17,0.00
2019,09,10,03,18,0.00
2019,09,10,03,19,0.00
2019,09,10,03,20,0.00
2019,09,10,03,21,0.00
2019,09,10,03,22,0.00
2019,09,10,03,23,0.00
2019,09,10,03,24,0.00
2019,09,10,03,25,0.00
2019,09,10,03,26,0.00
2019,09,10,03,27,0.00
2019,09,10,03,28,0.00
2019,09,10,03,29,0.00
2019,09,10,03,30,0.00
2019,09,10,03,31,0.00
2019,09,10,03,32,0.00
2019,09,10,03,33,0.00
2019,09,10,03,34,0.00
2019,09,10,03,35,0.00
2019,09,10,03,36,0.00
2019,09,10,03,37,0.00
2019,09,10,03,38,0.00
2019,09,10,03,39,0.00
2019,09,10,03,40,0.00
2019,09,10,03,41,0.00
2019,09,10,03,42,0.00
2019,09,10,03,43,0.00
2019,09,10,03,44,0.00
2019,09,10,03,45,0.00
2019,09,10,03,46,0.00
2019,09,10,03,47,0.00
2019,09,10,03,48,0.00
2019,09,10,03,49,0.00
2019,09,10,03,50,0.00
2019,09,10,03,51,0.00
2019,09,10,03,52,0.00
2019,09,10,03,53,0.00
2019,09,10,03,54,0.00
2019,09,10,03,55,0.00
2019,09,10,03,56,0.00
2019,09,10,03,57,0.00
2019,09,10,03,58,0.00
2019,09,10,03,59,0.00
2019,09,10,04,00,0.00
2019,09,10,04,01,0.00
2019,09,10,04,02,0.00
2019,09,10,04,03,0.00
2019,09,10,04,04,0.00
2019,09,10,04,05,0.00
2019,09,10,04,06,0.00
2019,09,10,04,07,0.00
2019,09,10,04,08,0.00
2019,09,10,04,09,0.00
2019,09,10,04,10,0.00
2019,09,10,04,11,0.00
2019,09,10,04,12,0.00
2019,09,10,04,13,0.00
2019,09,10,04,14,0.00
2019,09,10,04,15,0.00
2019,09,10,04,16,0.00
2019,09,10,04,17,0.00
2019,09,10,04,18,0.00
2019,09,10,04,19,0.00
2019,09,10,04,20,0.00
2019,09,10,04,21,0.00
2019,09,10,04,22,0.00
2019,09,10,04,23,0.00
2019,09,10,04,24,0.00
2019,09,10,04,25,0.00
2019,09,10,04,26,0.00
2019,09,10,04,27,0.00
2019,09,10,04,28,0.00
2019,09,10,04,29,0.00
2019,09,10,04,30,0.00
2019,09,10,04,31,0.00
2019,09,10,04,32,0.00
2019,09,10,04,33,0.00
2019,09,10,04,34,0.00
2019,09,10,04,35,0.00
2019,09,10,04,36,0.00
2019,09,10,04,37,0.00
2019,09,10,04,38,0.00
2019,09,10,04,39,0.00
2019,09,10,04,40,0.00
2019,09,10,04,41,0.00
2019,09,10,04,42,0.00
2019,09,10,04,43,0.00
2019,09,10,04,44,0.00
2019,09,10,04,45,0.00
2019,09,10,04,46,0.00
2019,09,10,04,47,0.00
2019,09,10,04,48,0.00
2019,09,10,04,49,0.00
2019,09,10,04,50,0.00
2019,09,10,04,51,0.00
2019,09,10,04,52,0.00
2019,09,10,04,53,0.00
2019,09,10,04,54,0.00
2019,09,10,04,55,0.00
2019,09,10,04,56,0.00
2019,09,10,04,57,0.00
2019,09,10,04,58,0.00
2019,09,10,04,59,0.00
2019,09,10,05,00,0.00
2019,09,10,05,01,0.00
2019,09,10,05,02,0.00
2019,09,10,05,03,0.00
2019,09,10,05,04,0.00
2019,09,10,05,05,0.00
2019,09,10,05,06,0.00
2019,09,10,05,07,0.00
2019,09,10,05,08,0.00
2019,09,10,05,09,0.00
2019,09,10,05,10,0.00
2019,09,10,05,11,0.00
2019,09,10,05,12,0.00
2019,09,10,05,13,0.00
2019,09,10,05,14,0.00
2019,09,10,05,15,0.00
2019,09,10,05,16,0.00
2019,09,10,05,17,0.00
2019,09,10,05,18,0.00
2019,09,10,05,19,0.00
2019,09,10,05,20,0.00
2019,09,10,05,21,0.00
2019,09,10,05,22,0.00
2019,09,10,05,23,0.00
2019,09,10,05,24,0.00
2019,09,10,05,25,0.00
2019,09,10,05,26,0.00
2019,09,10,05,27,0.00
2019,09,10,05,28,0.00
2019,09,10,05,29,0.00
2019,09,10,05,30,0.00
2019,09,10,05,31,0.00
2019,09,10,05,32,0.00
2019,09,10,05,33,0.00
2019,09,10,05,34,0.00
2019,09,10,05,35,0.00
2019,09,10,05,36,0.00
2019,09,10,05,37,0.00
2019,09,10,05,38,0.00
2019,09,10,05,39,0.00
2019,09,10,05,40,0.00
2019,09,10,05,41,0.00
2019,09,10,05,42,0.00
2019,09,10,05,43,0.00
2019,09,10,05,44,0.00
2019,09,10,05,45,0.00
2019,09,10,05,46,0.00
2019,09,10,05,47,0.00
2019,09,10,05,48,0.00
2019,09,10,05,49,0.00
2019,09,10,05,50,0.00
2019,09,10,05,51,0.00
2019,09,10,05,52,0.00
2019,09,10,05,53,0.00
2019,09,10,05,54,0.00
2019,09,10,05,55,0.00
2019,09,10,05,56,0.00
2019,09,10,05,57,0.00
2019,09,10,05,58,0.00
2019,09,10,05,59,0.00
2019,09,10,06,00,0.00
2019,09,10,06,01,0.00
2019,09,10,06,02,0.00
2019,09,10,06,03,0.00
2019,09,10,06,04,0.00
2019,09,10,06,05,0.00
2019,09,10,06,06,0.00
2019,09,10,06,07,0.00
2019,09,10,06,08,0.00
2019,09,10,06,09,0.00
2019,09,10,06,10,0.00
2019,09,10,06,11,0.00
2019,09,10,06,12,0.00
2019,09,10,06,13,0.00
2019,09,10,06,14,0.00
2019,09,10,06,15,0.00
2019,09,10,06,16,0.00
2019,09,10,06,17,0.00
2019,09,10,06,18,0.00
2019,09,10,06,19,0.00
2019,09,10,06,20,0.00
2019,09,10,06,21,0.00
2019,09,10,06,22,0.00
2019,09,10,06,23,0.00
2019,09,10,06,24,0.00
2019,09,10,06,25,0.00
2019,09,10,06,26,0.00
2019,09,10,06,27,0.00
2019,09,10,06,28,0.00
2019,09,10,06,29,0.00
2019,09,10,06,30,0.00
2019,09,10,06,31,0.00
2019,09,10,06,32,0.00
2019,09,10,06,33,0.00
2019,09,10,06,34,0.00
2019,09,10,06,35,0.00
2019,09,10,06,36,0.00
2019,09,10,06,37,0.00
2019,09,10,06,38,0.00
2019,09,10,06,39,0.00
2019,09,10,06,40,0.00
2019,09,10,06,41,0.00
2019,09,10,06,42,0.00
2019,09,10,06,43,0.00
2019,09,10,06,44,0.00
2019,09,10,06,45,0.00
2019,09,10,06,46,0.00
2019,09,10,06,47,0.00
2019,09,10,06,48,0.00
2019,09,10,06,49,0.00
2019,09,10,06,50,0.00
2019,09,10,06,51,0.00
2019,09,10,06,52,0.00
2019,09,10,06,53,0.00
2019,09,10,06,54,0.00
2019,09,10,06,55,0.00
2019,09,10,06,56,0.00
2019,09,10,06,57,0.00
2019,09,10,06,58,0.00
2019,09,10,06,59,0.00
2019,09,10,07,00,0.00
2019,09,10,07,01,0.00
2019,09,10,07,02,0.00
2019,09,10,07,03,0.00
2019,09,10,07,04,0.00
2019,09,10,07,05,0.00
2019,09,10,07,06,0.00
2019,09,10,07,07,0.00
2019,09,10,07,08,0.00
2019,09,10,07,09,0.00
2019,09,10,07,10,0.00
2019,09,10,07,11,0.00
2019,09,10,07,12,0.00
2019,09,10,07,13,0.00
2019,09,10,07,14,0.00
2019,09,10,07,15,5.00
2019,09,10,07,16,5.00
2019,09,10,07,17,5.00
2019,09,10,07,18,5.00
2019,09,10,07,19,5.00
2019,09,10,07,20,5.00
2019,09,10,07,21,5.00
2019,09,10,07,22,5.30
2019,09,10,07,23,7.00
2019,09,10,07,24,7.00
2019,09,10,07,25,8.00
2019,09,10,07,26,9.00
2019,09,10,07,27,9.00
2019,09,10,07,28,9.00
2019,09,10,07,29,9.00
2019,09,10,07,30,9.50
2019,09,10,07,31,11.00
2019,09,10,07,32,11.50
2019,09,10,07,33,12.00
2019,09,10,07,34,13.50
2019,09,10,07,35,15.80
2019,09,10,07,36,18.00
2019,09,10,07,37,18.30
2019,09,10,07,38,19.80
2019,09,10,07,39,21.00
2019,09,10,07,40,22.30
2019,09,10,07,41,23.00
2019,09,10,07,42,24.80
2019,09,10,07,43,26.00
2019,09,10,07,44,27.00
2019,09,10,07,45,30.00
2019,09,10,07,46,31.00
2019,09,10,07,47,32.00
2019,09,10,07,48,32.00
2019,09,10,07,49,34.70
2019,09,10,07,50,33.30
2019,09,10,07,51,35.00
2019,09,10,07,52,35.00
2019,09,10,07,53,37.10
2019,09,10,07,54,39.60
2019,09,10,07,55,40.00
2019,09,10,07,56,45.30
2019,09,10,07,57,47.00
2019,09,10,07,58,48.60
2019,09,10,07,59,54.10
2019,09,10,08,00,58.10
2019,09,10,08,01,61.30
2019,09,10,08,02,64.20
2019,09,10,08,03,68.60
2019,09,10,08,04,72.70
2019,09,10,08,05,77.00
2019,09,10,08,06,77.00
2019,09,10,08,07,77.00
2019,09,10,08,08,87.10
2019,09,10,08,09,96.00
2019,09,10,08,10,99.70
2019,09,10,08,11,104.40
2019,09,10,08,12,108.20
2019,09,10,08,13,112.20
2019,09,10,08,14,114.00
2019,09,10,08,15,118.00
2019,09,10,08,16,120.80
2019,09,10,08,17,122.80
2019,09,10,08,18,123.30
2019,09,10,08,19,125.50
2019,09,10,08,20,127.40
2019,09,10,08,21,129.00
2019,09,10,08,22,131.30
2019,09,10,08,23,132.00
2019,09,10,08,24,130.20
2019,09,10,08,25,130.00
2019,09,10,08,26,129.50
2019,09,10,08,27,128.00
2019,09,10,08,28,128.00
2019,09,10,08,29,128.00
2019,09,10,08,30,127.30
2019,09,10,08,31,125.20
2019,09,10,08,32,122.70
2019,09,10,08,33,120.70
2019,09,10,08,34,119.30
2019,09,10,08,35,115.90
2019,09,10,08,36,112.10
2019,09,10,08,37,108.00
2019,09,10,08,38,105.20
2019,09,10,08,39,104.00
2019,09,10,08,40,103.50
2019,09,10,08,41,101.30
2019,09,10,08,42,101.00
2019,09,10,08,43,102.00
2019,09,10,08,44,102.00
2019,09,10,08,45,103.80
2019,09,10,08,46,105.20
2019,09,10,08,47,107.50
2019,09,10,08,48,109.00
2019,09,10,08,49,111.60
2019,09,10,08,50,114.00
2019,09,10,08,51,118.70
2019,09,10,08,52,122.80
2019,09,10,08,53,127.00
2019,09,10,08,54,129.10
2019,09,10,08,55,136.50
2019,09,10,08,56,140.60
2019,09,10,08,57,144.50
2019,09,10,08,58,148.30
2019,09,10,08,59,149.20
2019,09,10,09,00,155.10
2019,09,10,09,01,156.50
2019,09,10,09,02,158.80
2019,09,10,09,03,160.00
2019,09,10,09,04,160.00
2019,09,10,09,05,160.00
2019,09,10,09,06,160.00
2019,09,10,09,07,159.70
2019,09,10,09,08,157.50
2019,09,10,09,09,155.60
2019,09,10,09,10,154.00
2019,09,10,09,11,151.70
2019,09,10,09,12,151.00
2019,09,10,09,13,151.00
2019,09,10,09,14,151.00
2019,09,10,09,15,151.60
2019,09,10,09,16,153.80
2019,09,10,09,17,155.00
2019,09,10,09,18,155.60
2019,09,10,09,19,157.60
2019,09,10,09,20,158.00
2019,09,10,09,21,158.00
2019,09,10,09,22,159.00
2019,09,10,09,23,162.40
2019,09,10,09,24,165.10
2019,09,10,09,25,168.30
2019,09,10,09,26,171.30
2019,09,10,09,27,175.70
2019,09,10,09,28,179.20
2019,09,10,09,29,181.50
2019,09,10,09,30,184.10
2019,09,10,09,31,187.00
2019,09,10,09,32,190.60
2019,09,10,09,33,192.80
2019,09,10,09,34,196.60
2019,09,10,09,35,197.60
2019,09,10,09,36,203.00
2019,09,10,09,37,207.10
2019,09,10,09,38,210.90
2019,09,10,09,39,217.40
2019,09,10,09,40,223.80
2019,09,10,09,41,231.40
2019,09,10,09,42,237.00
2019,09,10,09,43,241.40
2019,09,10,09,44,236.60
2019,09,10,09,45,233.90
2019,09,10,09,46,230.10
2019,09,10,09,47,229.00
2019,09,10,09,48,229.00
2019,09,10,09,49,230.70
2019,09,10,09,50,236.00
2019,09,10,09,51,236.00
2019,09,10,09,52,236.50
2019,09,10,09,53,238.30
2019,09,10,09,54,244.40
2019,09,10,09,55,261.10
2019,09,10,09,56,289.80
2019,09,10,09,57,310.90
2019,09,10,09,58,338.90
2019,09,10,09,59,386.00
2019,09,10,10,00,445.00
2019,09,10,10,01,447.20
2019,09,10,10,02,399.90
2019,09,10,10,03,329.90
2019,09,10,10,04,278.30
2019,09,10,10,05,260.90
2019,09,10,10,06,252.90
2019,09,10,10,07,251.00
2019,09,10,10,08,252.60
2019,09,10,10,09,253.40
2019,09,10,10,10,264.70
2019,09,10,10,11,269.80
2019,09,10,10,12,273.60
2019,09,10,10,13,276.00
2019,09,10,10,14,279.30
2019,09,10,10,15,284.10
2019,09,10,10,16,295.70
2019,09,10,10,17,319.60
2019,09,10,10,18,329.00
2019,09,10,10,19,329.00
2019,09,10,10,20,318.60
2019,09,10,10,21,309.00
2019,09,10,10,22,298.10
2019,09,10,10,23,296.80
2019,09,10,10,24,303.60
2019,09,10,10,25,298.70
2019,09,10,10,26,290.50
2019,09,10,10,27,286.40
2019,09,10,10,28,286.30
2019,09,10,10,29,290.70
2019,09,10,10,30,298.20
2019,09,10,10,31,314.60
2019,09,10,10,32,328.30
2019,09,10,10,33,338.70
2019,09,10,10,34,353.60
2019,09,10,10,35,360.10
2019,09,10,10,36,360.50
2019,09,10,10,37,355.60
2019,09,10,10,38,346.20
2019,09,10,10,39,334.20
2019,09,10,10,40,326.80
2019,09,10,10,41,320.40
2019,09,10,10,42,316.00
2019,09,10,10,43,313.50
2019,09,10,10,44,313.20
2019,09,10,10,45,318.70
2019,09,10,10,46,323.00
2019,09,10,10,47,325.40
2019,09,10,10,48,331.60
2019,09,10,10,49,334.00
2019,09,10,10,50,341.00
2019,09,10,10,51,342.90
2019,09,10,10,52,342.60
2019,09,10,10,53,352.00
2019,09,10,10,54,355.80
2019,09,10,10,55,356.80
2019,09,10,10,56,352.00
2019,09,10,10,57,343.90
2019,09,10,10,58,344.60
2019,09,10,10,59,350.00
2019,09,10,11,00,353.10
2019,09,10,11,01,365.30
2019,09,10,11,02,373.60
2019,09,10,11,03,379.10
2019,09,10,11,04,381.00
2019,09,10,11,05,384.60
2019,09,10,11,06,396.10
2019,09,10,11,07,416.60
2019,09,10,11,08,438.40
2019,09,10,11,09,408.60
2019,09,10,11,10,377.40
2019,09,10,11,11,371.40
2019,09,10,11,12,372.80
2019,09,10,11,13,373.70
2019,09,10,11,14,378.50
2019,09,10,11,15,382.90
2019,09,10,11,16,387.00
2019,09,10,11,17,395.00
2019,09,10,11,18,402.10
2019,09,10,11,19,397.40
2019,09,10,11,20,388.70
2019,09,10,11,21,378.80
2019,09,10,11,22,370.60
2019,09,10,11,23,366.50
2019,09,10,11,24,366.60
2019,09,10,11,25,371.60
2019,09,10,11,26,373.00
2019,09,10,11,27,374.10
2019,09,10,11,28,379.50
2019,09,10,11,29,374.00
2019,09,10,11,30,368.40
2019,09,10,11,31,364.70
2019,09,10,11,32,365.50
2019,09,10,11,33,368.70
2019,09,10,11,34,386.10
2019,09,10,11,35,411.00
2019,09,10,11,36,415.10
2019,09,10,11,37,428.20
2019,09,10,11,38,434.00
2019,09,10,11,39,430.30
2019,09,10,11,40,431.70
2019,09,10,11,41,450.00
2019,09,10,11,42,495.60
2019,09,10,11,43,626.00
2019,09,10,11,44,611.50
2019,09,10,11,45,593.60
2019,09,10,11,46,536.20
2019,09,10,11,47,488.60
2019,09,10,11,48,485.00
2019,09,10,11,49,499.50
2019,09,10,11,50,554.70
2019,09,10,11,51,578.00
2019,09,10,11,52,655.30
2019,09,10,11,53,699.40
2019,09,10,11,54,643.80
2019,09,10,11,55,605.00
2019,09,10,11,56,566.60
2019,09,10,11,57,454.30
2019,09,10,11,58,429.00
2019,09,10,11,59,405.40
2019,09,10,12,00,413.80
2019,09,10,12,01,393.10
2019,09,10,12,02,422.70
2019,09,10,12,03,427.50
2019,09,10,12,04,435.30
2019,09,10,12,05,462.50
2019,09,10,12,06,480.00
2019,09,10,12,07,480.00
2019,09,10,12,08,505.60
2019,09,10,12,09,510.00
2019,09,10,12,10,510.00
2019,09,10,12,11,510.00
2019,09,10,12,12,510.00
2019,09,10,12,13,510.00
2019,09,10,12,14,510.00
2019,09,10,12,15,491.30
2019,09,10,12,16,462.40
2019,09,10,12,17,450.00
2019,09,10,12,18,449.30
2019,09,10,12,19,452.30
2019,09,10,12,20,457.00
2019,09,10,12,21,457.00
2019,09,10,12,22,510.10
2019,09,10,12,23,519.00
2019,09,10,12,24,519.00
2019,09,10,12,25,519.00
2019,09,10,12,26,519.00
2019,09,10,12,27,622.50
2019,09,10,12,28,680.00
2019,09,10,12,29,753.40
2019,09,10,12,30,796.60
2019,09,10,12,31,990.00
2019,09,10,12,32,990.00
2019,09,10,12,33,990.00
2019,09,10,12,34,990.00
2019,09,10,12,35,885.40
2019,09,10,12,36,854.00
2019,09,10,12,37,895.00
2019,09,10,12,38,865.70
2019,09,10,12,39,782.00
2019,09,10,12,40,764.50
2019,09,10,12,41,747.00
2019,09,10,12,42,747.00
2019,09,10,12,43,579.90
2019,09,10,12,44,565.00
2019,09,10,12,45,620.00
2019,09,10,12,46,614.10
2019,09,10,12,47,570.00
2019,09,10,12,48,570.00
2019,09,10,12,49,572.20
2019,09,10,12,50,573.00
2019,09,10,12,51,573.00
2019,09,10,12,52,573.00
2019,09,10,12,53,573.00
2019,09,10,12,54,572.00
2019,09,10,12,55,571.00
2019,09,10,12,56,571.00
2019,09,10,12,57,571.00
2019,09,10,12,58,571.00
2019,09,10,12,59,549.70
2019,09,10,13,00,525.50
2019,09,10,13,01,568.00
2019,09,10,13,02,568.00
2019,09,10,13,03,711.10
2019,09,10,13,04,704.20
2019,09,10,13,05,755.90
2019,09,10,13,06,692.80
2019,09,10,13,07,752.00
2019,09,10,13,08,752.00
2019,09,10,13,09,728.20
2019,09,10,13,10,715.00
2019,09,10,13,11,676.70
2019,09,10,13,12,708.30
2019,09,10,13,13,684.50
2019,09,10,13,14,717.50
2019,09,10,13,15,715.00
2019,09,10,13,16,715.00
2019,09,10,13,17,715.00
2019,09,10,13,18,715.00
2019,09,10,13,19,714.40
2019,09,10,13,20,710.00
2019,09,10,13,21,710.00
2019,09,10,13,22,711.00
2019,09,10,13,23,712.00
2019,09,10,13,24,712.00
2019,09,10,13,25,713.80
2019,09,10,13,26,708.00
2019,09,10,13,27,706.70
2019,09,10,13,28,703.00
2019,09,10,13,29,700.50
2019,09,10,13,30,696.70
2019,09,10,13,31,694.50
2019,09,10,13,32,694.00
2019,09,10,13,33,694.00
2019,09,10,13,34,693.70
2019,09,10,13,35,693.00
2019,09,10,13,36,693.00
2019,09,10,13,37,691.70
2019,09,10,13,38,691.00
2019,09,10,13,39,687.40
2019,09,10,13,40,687.30
2019,09,10,13,41,689.00
2019,09,10,13,42,689.00
2019,09,10,13,43,687.40
2019,09,10,13,44,686.00
2019,09,10,13,45,684.50
2019,09,10,13,46,684.00
2019,09,10,13,47,682.00
2019,09,10,13,48,682.60
2019,09,10,13,49,684.00
2019,09,10,13,50,681.90
2019,09,10,13,51,680.00
2019,09,10,13,52,679.30
2019,09,10,13,53,679.00
2019,09,10,13,54,678.80
2019,09,10,13,55,677.00
2019,09,10,13,56,677.00
2019,09,10,13,57,677.00
2019,09,10,13,58,677.00
2019,09,10,13,59,677.00
2019,09,10,14,00,675.20
2019,09,10,14,01,677.00
2019,09,10,14,02,677.00
2019,09,10,14,03,677.00
2019,09,10,14,04,674.80
2019,09,10,14,05,673.00
2019,09,10,14,06,673.00
2019,09,10,14,07,673.00
2019,09,10,14,08,673.00
2019,09,10,14,09,673.00
2019,09,10,14,10,673.00
2019,09,10,14,11,673.00
2019,09,10,14,12,671.70
2019,09,10,14,13,671.00
2019,09,10,14,14,672.80
2019,09,10,14,15,672.60
2019,09,10,14,16,669.50
2019,09,10,14,17,668.00
2019,09,10,14,18,668.00
2019,09,10,14,19,668.00
2019,09,10,14,20,668.00
2019,09,10,14,21,668.00
2019,09,10,14,22,664.00
2019,09,10,14,23,664.50
2019,09,10,14,24,666.80
2019,09,10,14,25,668.00
2019,09,10,14,26,668.00
2019,09,10,14,27,606.50
2019,09,10,14,28,661.40
2019,09,10,14,29,677.00
2019,09,10,14,30,677.00
2019,09,10,14,31,677.00
2019,09,10,14,32,676.00
2019,09,10,14,33,673.70
2019,09,10,14,34,673.00
2019,09,10,14,35,671.20
2019,09,10,14,36,668.00
2019,09,10,14,37,668.00
2019,09,10,14,38,666.50
2019,09,10,14,39,664.00
2019,09,10,14,40,641.30
2019,09,10,14,41,651.00
2019,09,10,14,42,657.20
2019,09,10,14,43,655.30
2019,09,10,14,44,665.50
2019,09,10,14,45,664.00
2019,09,10,14,46,658.20
2019,09,10,14,47,652.00
2019,09,10,14,48,652.00
2019,09,10,14,49,652.00
2019,09,10,14,50,652.00
2019,09,10,14,51,654.60
2019,09,10,14,52,665.10
2019,09,10,14,53,671.00
2019,09,10,14,54,677.90
2019,09,10,14,55,631.40
2019,09,10,14,56,617.00
2019,09,10,14,57,649.00
2019,09,10,14,58,649.00
2019,09,10,14,59,602.00
2019,09,10,15,00,490.90
2019,09,10,15,01,462.00
2019,09,10,15,02,462.00
2019,09,10,15,03,462.00
2019,09,10,15,04,481.00
2019,09,10,15,05,633.00
2019,09,10,15,06,632.30
2019,09,10,15,07,631.00
2019,09,10,15,08,629.70
2019,09,10,15,09,629.00
2019,09,10,15,10,629.00
2019,09,10,15,11,627.50
2019,09,10,15,12,617.40
2019,09,10,15,13,612.60
2019,09,10,15,14,611.00
2019,09,10,15,15,608.70
2019,09,10,15,16,608.00
2019,09,10,15,17,605.30
2019,09,10,15,18,605.00
2019,09,10,15,19,605.00
2019,09,10,15,20,587.10
2019,09,10,15,21,540.50
2019,09,10,15,22,520.00
2019,09,10,15,23,520.00
2019,09,10,15,24,520.00
2019,09,10,15,25,272.10
2019,09,10,15,26,256.00
2019,09,10,15,27,253.00
2019,09,10,15,28,253.00
2019,09,10,15,29,310.90
2019,09,10,15,30,345.00
2019,09,10,15,31,296.40
2019,09,10,15,32,288.00
2019,09,10,15,33,288.00
2019,09,10,15,34,288.00
2019,09,10,15,35,445.60
2019,09,10,15,36,587.60
2019,09,10,15,37,585.00
2019,09,10,15,38,578.80
2019,09,10,15,39,567.00
2019,09,10,15,40,550.00
2019,09,10,15,41,561.00
2019,09,10,15,42,577.00
2019,09,10,15,43,573.20
2019,09,10,15,44,570.20
2019,09,10,15,45,566.40
2019,09,10,15,46,563.60
2019,09,10,15,47,561.00
2019,09,10,15,48,561.00
2019,09,10,15,49,561.00
2019,09,10,15,50,561.00
2019,09,10,15,51,562.60
2019,09,10,15,52,563.00
2019,09,10,15,53,563.00
2019,09,10,15,54,563.00
2019,09,10,15,55,541.90
2019,09,10,15,56,467.00
2019,09,10,15,57,425.00
2019,09,10,15,58,425.00
2019,09,10,15,59,425.00
2019,09,10,16,00,425.00
2019,09,10,16,01,425.00
2019,09,10,16,02,463.50
2019,09,10,16,03,529.00
2019,09,10,16,04,529.00
2019,09,10,16,05,529.00
2019,09,10,16,06,529.00
2019,09,10,16,07,529.00
2019,09,10,16,08,417.30
2019,09,10,16,09,97.60
2019,09,10,16,10,97.00
2019,09,10,16,11,97.00
2019,09,10,16,12,99.30
2019,09,10,16,13,100.00
2019,09,10,16,14,102.30
2019,09,10,16,15,104.30
2019,09,10,16,16,105.00
2019,09,10,16,17,109.70
2019,09,10,16,18,119.90
2019,09,10,16,19,123.00
2019,09,10,16,20,126.40
2019,09,10,16,21,125.00
2019,09,10,16,22,124.50
2019,09,10,16,23,123.00
2019,09,10,16,24,125.10
2019,09,10,16,25,127.00
2019,09,10,16,26,145.70
2019,09,10,16,27,157.20
2019,09,10,16,28,167.00
2019,09,10,16,29,167.00
2019,09,10,16,30,186.10
2019,09,10,16,31,219.70
2019,09,10,16,32,225.00
2019,09,10,16,33,286.40
2019,09,10,16,34,304.00
2019,09,10,16,35,474.00
2019,09,10,16,36,468.00
2019,09,10,16,37,472.90
2019,09,10,16,38,480.00
2019,09,10,16,39,480.00
2019,09,10,16,40,473.00
2019,09,10,16,41,442.60
2019,09,10,16,42,379.90
2019,09,10,16,43,448.30
2019,09,10,16,44,415.70
2019,09,10,16,45,392.00
2019,09,10,16,46,403.30
2019,09,10,16,47,412.30
2019,09,10,16,48,413.00
2019,09,10,16,49,414.40
2019,09,10,16,50,411.00
2019,09,10,16,51,411.80
2019,09,10,16,52,411.60
2019,09,10,16,53,416.30
2019,09,10,16,54,417.80
2019,09,10,16,55,409.70
2019,09,10,16,56,420.00
2019,09,10,16,57,420.00
2019,09,10,16,58,416.30
2019,09,10,16,59,410.50
2019,09,10,17,00,408.70
2019,09,10,17,01,408.00
2019,09,10,17,02,379.20
2019,09,10,17,03,367.00
2019,09,10,17,04,370.40
2019,09,10,17,05,382.90
2019,09,10,17,06,387.00
2019,09,10,17,07,390.10
2019,09,10,17,08,361.70
2019,09,10,17,09,377.90
2019,09,10,17,10,381.00
2019,09,10,17,11,381.00
2019,09,10,17,12,381.00
2019,09,10,17,13,381.00
2019,09,10,17,14,381.00
2019,09,10,17,15,381.00